Regional Weather Roundup
Issued by NWS Raleigh/Durham, NC

Home | Current Version | Previous Version | Text Only | Print | Product List | Glossary On
Versions: 1 2 3 4 5 6 7 8 9 10 11 12 13 14 15 16 17 18 19 20 21 22 23 24 25 26 27 28 29 30 31 32 33 34 35 36 37 38 39 40 41 42 43 44 45 46 47 48 49 50
000
ASUS42 KRAH 030710
RWRRAH
NORTH CAROLINA WEATHER ROUNDUP
NATIONAL WEATHER SERVICE RALEIGH NC
300 AM EDT MON AUG 03 2015

NOTE: "FAIR" INDICATES FEW OR NO CLOUDS BELOW 12,000 FEET WITH NO
SIGNIFICANT WEATHER AND/OR OBSTRUCTIONS TO VISIBILITY.

NCZ001-053-055-056-065-067-030800-
WESTERN NORTH CAROLINA

CITY           SKY/WX    TMP DP  RH WIND       PRES   REMARKS
ASHEVILLE      CLEAR     64  60  87 S3        30.01F
JEFFERSON      MOCLDY    67  52  59 CALM      30.05F
MORGANTON      CLEAR     67  62  83 CALM      30.00F
HICKORY        CLEAR     69  60  73 E3        29.95F
RUTHERFORDTON  PTCLDY    67  63  89 CALM      29.95F
MOUNT AIRY     PTCLDY    68  62  80 CALM      29.97F
BOONE          CLEAR     58  57  99 CALM      30.07F
$$

NCZ021-022-025-041-071-084-088-030800-
CENTRAL NORTH CAROLINA

CITY           SKY/WX    TMP DP  RH WIND       PRES   REMARKS
CHARLOTTE      PTCLDY    75  67  76 SE7       29.94S
GREENSBORO     PTCLDY    72  59  63 CALM      29.93F
WINSTON-SALEM  PTCLDY    69  60  73 CALM      29.95F
RALEIGH-DURHAM PTCLDY    70  65  84 CALM      29.92F
FORT BRAGG     PTCLDY    75  72  88 SE1       29.91F
FAYETTEVILLE   CLOUDY    76  72  87 SE3       29.91F
BURLINGTON     CLEAR     67  62  84 CALM      29.93F
LAURINBURG     CLOUDY    74  70  87 S3        29.92F
$$

NCZ011-015-027-028-043-044-047-080-103-030800-
NORTHEASTERN NORTH CAROLINA

CITY           SKY/WX    TMP DP  RH WIND       PRES   REMARKS
ROCKY MT-WILSO CLEAR     73  70  90 CALM      29.91F
GREENVILLE     CLEAR     73  73 100 CALM      29.94F
WASHINGTON     MOCLDY    73  71  96 CALM      29.93F
ELIZABETH CITY PTCLDY    73  70  90 S7        29.91F
MANTEO         PTCLDY    78  74  87 SW10      29.93F
CAPE HATTERAS  PTCLDY    78  73  84 W5        29.95S
$$

NCZ078-087-090-091-093-098-101-030800-
SOUTHEASTERN NORTH CAROLINA

CITY           SKY/WX    TMP DP  RH WIND       PRES   REMARKS
LUMBERTON      CLOUDY    75  72  90 CALM      29.91F
GOLDSBORO      PTCLDY    73  72  94 E1        29.90F
KINSTON        MOCLDY    73  72  96 CALM      29.93F
KENANSVILLE    CLOUDY    71  69  95 CALM      29.93F
NEW BERN       MOCLDY    74  71  91 CALM      29.93F
CHERRY POINT   MOCLDY    74  72  93 CALM      29.93F
BEAUFORT       HVY RAIN  76  75  97 SW26G38   29.92F FOG
JACKSONVILLE   LGT RAIN  76  73  91 SW6       29.92F
WILMINGTON     LGT RAIN  75  74  96 S6        29.92F
$$




USA.gov is the U.S. government's official web portal to all federal, state and local government web resources and services.